Flag for Canada Weather past 2 weeks in Red Deer, Alberta, Canada

Now
77 °F

Passing clouds.


Feels Like: 78 °F
Forecast: 40 / 76 °F
Wind: 2 mph from Southeast

Location: Red Deer

Current Time: Sep 16, 2014 at 5:35:02 PM

Latest Report: Sep 16, 2014 at 5:00 PM


Visibility: 15 mi

Pressure: 29.88 "Hg

Humidity: 32%

Dew point: 45 °F

Location of Red DeerLocation

Historic Weather in Red Deer — Graph

°F

Red Deer temperature yesterday

Maximum temperature yesterday: 73 °F (at 3:00 PM)
Minimum temperature yesterday: 36 °F (at 7:00 AM)
Average temperature yesterday: 53 °F

Past Weeks' High & Low Weather Summary

 TemperatureHumidityPressure
High77 °F (Sep 7, 2:00 PM)100% (Sep 1, 9:00 PM)30.69 "Hg (Sep 1, 9:00 PM)
Low25 °F (Sep 11, 5:00 AM)27% (Sep 5, 4:00 PM)29.76 "Hg (Sep 7, 2:00 PM)
Average47 °F78%30.15 "Hg
* Reported Sep 1 4:00 PM — Sep 16 4:00 PM, Red Deer, Weather by CustomWeather, © 2014

Note: Actual official high and low records may vary slightly from our data, if they occured in-between our weather recording intervals... More about our weather records

Advertising

Red Deer weather history for previous 24 hours

 ConditionsComfort  
Time TempWeatherWind HumidityBarometerVisibility
4:00 PM
Sep 16
77 °FPassing clouds.2 mph30%29.89 "Hg15 mi
3:00 PM77 °FPassing clouds.3 mph34%29.89 "Hg15 mi
2:00 PM73 °FPassing clouds.3 mph36%29.90 "Hg15 mi
1:00 PM70 °FPassing clouds.2 mph43%29.92 "Hg15 mi
12:00 PM66 °FPassing clouds.3 mph52%29.93 "Hg15 mi
11:00 AM59 °FPassing clouds.5 mph63%29.95 "Hg15 mi
10:00 AM52 °FPassing clouds.5 mph82%29.96 "Hg15 mi
9:00 AM45 °FPassing clouds.5 mph93%29.98 "Hg15 mi
8:00 AM39 °FPassing clouds.2 mph100%29.99 "Hg15 mi
7:00 AM37 °FFog.3 mph100%29.97 "Hg15 mi
6:00 AM39 °FClear.2 mph93%29.97 "Hg15 mi
5:00 AM41 °FFog.7 mph93%29.96 "Hg15 mi
4:00 AM39 °FClear.2 mph100%29.97 "Hg15 mi
3:00 AM43 °FClear.5 mph93%29.98 "Hg15 mi
2:00 AM43 °FClear.No wind93%29.99 "Hg15 mi
1:00 AM45 °FClear.3 mph87%30.00 "Hg15 mi
12:00 AM46 °FClear.2 mph82%30.00 "Hg15 mi
11:00 PM
Sep 15
46 °FClear.No wind82%30.02 "Hg15 mi
10:00 PM54 °FClear.No wind72%30.01 "Hg15 mi
9:00 PM55 °FClear.5 mph67%30.02 "Hg15 mi
8:00 PM59 °FSunny.5 mph55%30.02 "Hg15 mi
7:00 PM70 °FSunny.2 mph38%30.00 "Hg15 mi
6:00 PM72 °FSunny.No wind33%30.00 "Hg15 mi
5:00 PM73 °FSunny.5 mph31%30.01 "Hg15 mi
Weather by CustomWeather, © 2014

See weather overviewHow to use our weather pages